This is the latest recevied weather packets stored in our database for station/object EB5EEV-5. If no packets are shown the sender has not sent any weather packets the latest 10 day(s).
| Time | Temp. | Humidity | Pressure | Rain* | Wind** | Luminosity | Snow |
|---|---|---|---|---|---|---|---|
| 1777911113 | 21.11° C | 8% | - | 0.76 mm | - | - | - |
| 1777910387 | 21.11° C | 8% | - | 0.76 mm | - | - | - |
| 1777909607 | 21.11° C | 8% | - | 0.76 mm | - | - | - |
| 1777908762 | 20.56° C | 8% | - | 0.76 mm | - | - | - |
| 1777907945 | 20.56° C | 7% | - | 0 mm | - | - | - |
| 1777907175 | 20.56° C | 8% | - | 0 mm | - | - | - |
| 1777906342 | 20.56° C | 8% | - | 0 mm | - | - | - |
| 1777905568 | 20.56° C | 8% | - | 0 mm | - | - | - |
| 1777904695 | 19.44° C | 8% | - | 0 mm | - | - | - |
| 1777903844 | 19.44° C | 8% | - | 0 mm | - | - | - |
| 1777903085 | 19.44° C | 8% | - | 0 mm | - | - | - |
| 1777902226 | 19.44° C | 8% | - | 0 mm | - | - | - |
| 1777901382 | 18.89° C | 9% | - | 0.25 mm | - | - | - |
| 1777900653 | 18.89° C | 9% | - | 0.25 mm | - | - | - |
| 1777899861 | 18.33° C | 9% | - | 0.51 mm | - | - | - |
| 1777899067 | 18.33° C | 9% | - | 2.03 mm | - | - | - |
| 1777898301 | 17.78° C | 9% | - | 2.79 mm | - | - | - |
| 1777897457 | 17.78° C | 9% | - | 2.29 mm | - | - | - |
| 1777896597 | 18.33° C | 9% | - | 2.03 mm | - | - | - |
| 1777895702 | 18.89° C | 8% | - | 0.51 mm | - | - | - |
| 1777894981 | 19.44° C | 8% | - | 0 mm | - | - | - |
| 1777894112 | 18.89° C | 8% | - | 0 mm | - | - | - |
| 1777893230 | 18.89° C | 8% | - | 0 mm | - | - | - |
| 1777892447 | 18.33° C | 9% | - | 3.56 mm | - | - | - |
| 1777891751 | 18.33° C | 9% | - | 3.56 mm | - | - | - |
* Rain latest hour (hover to see other rain measurements)
** Current wind speed in m/s (hover to see current wind gust speed)